SPOT 7 (40053 NORAD) Tracking and Keplerian Element Data

This shows tracking and keplerian element data for the satellite.

Feedback or suggestion? Click here.




ElementValue
Catalog40053
NameSPOT 7
Epoch Orbit28595
Epoch Day316.83689108
Epoch Year2019
RAAN21.8902
Inclination98.2118
Eccentricity0.0001089
Argument of Perigee81.2616
Mean Anonmoly278.87
Mean Motion14.58552975
Decay Rate-5.7E-07
L11 40053U 14034A 19316.83689108 -.00000057 00000-0 -23206-5 0 9999
L22 40053 98.2118 21.8902 0001089 81.2616 278.8700 14.58552975285959

Live tracking and technical data element details for SPOT 7 (NORAD 40053). SPOT 7 can be tracked NOW for your location showing map with azimuth and elevation plus other details from your city location.

Track the satellite on the map from your city or location and see movement details for azimuth, elevation, latitude, longitude, range, height, and movement on the map or in text.







IsCatalogInMostPopularTable: catalog: 40053, numindb: 348
Update: records affected: 1



GetName: 40053 SPOT 7

Hit Count: updated at: Wed, 13 Nov 2019 16:44:31 GMT